Regional Weather Roundup
Issued by NWS

Home | Current Version | Previous Version | Text Only | Print | Product List | Glossary On
Versions: 1 2 3 4 5 6 7 8 9 10 11 12 13 14 15 16 17 18 19 20 21 22 23 24 25 26 27 28 29 30 31 32 33 34 35 36 37 38 39 40 41 42 43 44 45 46 47 48 49 50
000
ASUS43 KLSX 052307
RWRMO

WEATHER SUMMARY FOR MISSOURI
NATIONAL WEATHER SERVICE SPRINGFIELD MO
600 PM CDT SUN JUL 05 2015

NOTE: "FAIR" INDICATES FEW OR NO CLOUDS BELOW 12,000 FEET WITH NO
       SIGNIFICANT WEATHER AND/OR OBSTRUCTIONS TO VISIBILITY.
       CURRENT SKY AND/OR WEATHER CONDITIONS ARE NOT AVAILABLE FOR
       CHILLICOTHE AND FARMINGTON.

MOZ001>031-035>038-043-044-053-054-060000-
...NORTHERN AND WESTERN MISSOURI...

CITY           SKY/WX    TMP DP  RH WIND       PRES   REMARKS
KANSAS CTY INT PTSUNNY   87  75  67 S13       29.90F HX  96
KANSAS C DTWN  MOSUNNY   89  74  60 SE9G21    29.89F HX  98
LEE`S SUMMIT   MOSUNNY   88  74  63 S8        29.92S HX  96
ST JOSEPH      MOSUNNY   88  74  63 S14       29.87F HX  96
CHILLICOTHE      N/A     89  73  59 SE10      29.92F HX  97
KIRKSVILLE     SUNNY     84  67  56 S13       29.97F

$$
MOZ066>068-077>081-088>096-101>105-060000-
...SOUTHWEST MISSOURI...

CITY           SKY/WX    TMP DP  RH WIND       PRES   REMARKS
SPRINGFIELD    TSTM      70  67  90 W12       30.03F FOG
JOPLIN         PTSUNNY   90  74  59 S10       29.93F HX  99

$$
MOZ032>034-039>042-045>050-055>058-069>072-060000-
...CENTRAL MISSOURI...

CITY           SKY/WX    TMP DP  RH WIND       PRES   REMARKS
COLUMBIA       PTSUNNY   85  70  60 SE13      29.98F
JEFFERSON CITY MOSUNNY   86  68  54 SE12      29.96F
ROLLA          MOSUNNY   82  69  64 S8        29.99F
SEDALIA        MOSUNNY   87  74  64 SE12      29.96F HX  95
WHITEMAN AFB   SUNNY     87  75  66 S10       29.92F HX  97
WARRENSBURG    MOSUNNY   86  73  66 SE10      29.92F HX  93
OSAGE BEACH    MOSUNNY   84  70  61 S8        29.98F

$$
MOZ051-052-059>065-060000-
...EAST CENTRAL MISSOURI...

CITY           SKY/WX    TMP DP  RH WIND       PRES   REMARKS
ST LOUIS INTL  PTSUNNY   86  65  49 SE9       30.00F
SPIRIT OF STL  SUNNY     84  69  60 SE6       29.98F
ST CHARLES     SUNNY     84  68  58 S8        29.98F

$$
MOZ072>076-082>087-097>100-106>115-060000-
...SOUTH CENTRAL AND SOUTHEAST MISSOURI...

CITY           SKY/WX    TMP DP  RH WIND       PRES   REMARKS
CAPE GIRARDEAU SUNNY     83  67  58 SE6       30.01F
FARMINGTON     SUNNY     81  70  69 S6        30.06F
POPLAR BLUFF   MOSUNNY   83  71  67 S6        29.99F
WEST PLAINS    PTSUNNY   83  72  69 SE6       30.02F

$$



USA.gov is the U.S. government's official web portal to all federal, state and local government web resources and services.